• In Belarus
  • List of Countries
  • For 7 days
  • Water Temperature
  • Satellite Maps
  • Weather Map
  • Weather Widgets
  • user-avatar
    Login

    Hourly Weather Salala

    Today, 20 January, Saturday

    Time Temperature Precipitation Wind Pressure Humidity
    00:00 +21°C° 0 mm 2 mps 760 mmHg 54%
    01:00 +21°C° 0 mm 2 mps 760 mmHg 55%
    02:00 +21°C° 0 mm 1 mps 759 mmHg 56%
    03:00 +21°C° 0 mm 1 mps 759 mmHg 56%
    04:00 +21°C° 0 mm 1 mps 759 mmHg 61%
    05:00 +21°C° 0 mm 1 mps 759 mmHg 63%
    06:00 +20°C° 0 mm 2 mps 760 mmHg 66%
    07:00 +19°C° 0 mm 2 mps 760 mmHg 69%
    08:00 +21°C° 0 mm 2 mps 760 mmHg 62%
    09:00 +24°C° 0 mm 2 mps 760 mmHg 55%
    10:00 +26°C° 0 mm 3 mps 760 mmHg 48%
    11:00 +27°C° 0 mm 3 mps 760 mmHg 46%
    12:00 +28°C° 0 mm 3 mps 760 mmHg 44%
    13:00 +29°C° 0 mm 3 mps 759 mmHg 42%
    14:00 +29°C° 0 mm 2 mps 759 mmHg 43%
    15:00 +29°C° 0 mm 2 mps 758 mmHg 44%
    16:00 +29°C° 0 mm 2 mps 758 mmHg 45%
    17:00 +28°C° 0 mm 2 mps 758 mmHg 51%
    18:00 +27°C° 0 mm 2 mps 758 mmHg 57%
    19:00 +25°C° 0 mm 1 mps 758 mmHg 63%
    20:00 +25°C° 0 mm 1 mps 759 mmHg 67%
    21:00 +24°C° 0 mm 1 mps 759 mmHg 70%
    22:00 +24°C° 0 mm 1 mps 760 mmHg 73%
    23:00 +23°C° 0 mm 1 mps 760 mmHg 75%

    Tomorrow, 21 January, Sunday

    Time Temperature Precipitation Wind Pressure Humidity
    00:00 +23°C° 0 mm 1 mps 759 mmHg 77%
    01:00 +23°C° 0 mm 1 mps 759 mmHg 79%
    02:00 +22°C° 0 mm 1 mps 759 mmHg 79%
    03:00 +20°C° 0 mm 0 mps 759 mmHg 80%
    04:00 +20°C° 0 mm 0 mps 759 mmHg 80%
    05:00 +19°C° 0 mm 0 mps 759 mmHg 79%
    06:00 +19°C° 0 mm 0 mps 760 mmHg 79%
    07:00 +19°C° 0 mm 0 mps 760 mmHg 78%
    08:00 +23°C° 0 mm 1 mps 760 mmHg 68%
    09:00 +26°C° 0 mm 1 mps 761 mmHg 57%
    10:00 +28°C° 0 mm 2 mps 761 mmHg 46%
    11:00 +29°C° 0 mm 2 mps 761 mmHg 43%
    12:00 +30°C° 0 mm 3 mps 760 mmHg 39%
    13:00 +32°C° 0 mm 4 mps 760 mmHg 36%
    14:00 +32°C° 0 mm 4 mps 759 mmHg 38%
    15:00 +32°C° 0 mm 4 mps 759 mmHg 40%
    16:00 +30°C° 0 mm 4 mps 758 mmHg 42%
    17:00 +29°C° 0 mm 4 mps 759 mmHg 43%
    18:00 +28°C° 0 mm 3 mps 759 mmHg 45%
    19:00 +27°C° 0 mm 3 mps 760 mmHg 47%
    20:00 +26°C° 0 mm 3 mps 760 mmHg 45%
    21:00 +26°C° 0 mm 2 mps 760 mmHg 44%
    22:00 +25°C° 0 mm 2 mps 761 mmHg 42%
    23:00 +24°C° 0 mm 3 mps 761 mmHg 42%

    Day after tomorrow, 22 January, Monday

    Time Temperature Precipitation Wind Pressure Humidity
    00:00 +24°C° 0 mm 3 mps 760 mmHg 42%
    01:00 +22°C° 0 mm 4 mps 760 mmHg 42%
    02:00 +22°C° 0 mm 4 mps 760 mmHg 41%
    03:00 +21°C° 0 mm 5 mps 760 mmHg 41%
    04:00 +20°C° 0 mm 6 mps 760 mmHg 40%
    05:00 +20°C° 0 mm 6 mps 760 mmHg 38%
    06:00 +19°C° 0 mm 6 mps 760 mmHg 36%
    07:00 +17°C° 0 mm 6 mps 761 mmHg 34%
    08:00 +19°C° 0 mm 6 mps 761 mmHg 33%
    09:00 +21°C° 0 mm 7 mps 761 mmHg 31%
    10:00 +22°C° 0 mm 7 mps 762 mmHg 30%
    11:00 +23°C° 0 mm 7 mps 761 mmHg 27%
    12:00 +26°C° 0 mm 7 mps 760 mmHg 23%
    13:00 +27°C° 0 mm 7 mps 759 mmHg 20%
    14:00 +27°C° 0 mm 6 mps 759 mmHg 19%
    15:00 +28°C° 0 mm 6 mps 758 mmHg 18%
    16:00 +28°C° 0 mm 6 mps 758 mmHg 17%
    17:00 +27°C° 0 mm 5 mps 758 mmHg 20%
    18:00 +25°C° 0 mm 5 mps 758 mmHg 22%
    19:00 +23°C° 0 mm 5 mps 759 mmHg 24%
    20:00 +22°C° 0 mm 5 mps 759 mmHg 26%
    21:00 +22°C° 0 mm 5 mps 759 mmHg 27%
    22:00 +21°C° 0 mm 5 mps 760 mmHg 28%
    23:00 +21°C° 0 mm 5 mps 760 mmHg 30%

    23 January, Tuesday

    Time Temperature Precipitation Wind Pressure Humidity
    00:00 +20°C° 0 mm 5 mps 759 mmHg 32%
    01:00 +20°C° 0 mm 5 mps 759 mmHg 34%
    02:00 +19°C° 0 mm 4 mps 759 mmHg 35%
    03:00 +19°C° 0 mm 4 mps 759 mmHg 37%
    04:00 +18°C° 0 mm 4 mps 758 mmHg 38%
    05:00 +18°C° 0 mm 4 mps 759 mmHg 39%
    06:00 +18°C° 0 mm 4 mps 759 mmHg 40%
    07:00 +18°C° 0 mm 3 mps 760 mmHg 41%
    08:00 +20°C° 0 mm 3 mps 760 mmHg 38%
    09:00 +21°C° 0 mm 3 mps 761 mmHg 34%
    10:00 +24°C° 0 mm 3 mps 761 mmHg 31%
    11:00 +25°C° 0 mm 3 mps 760 mmHg 29%
    12:00 +27°C° 0 mm 3 mps 760 mmHg 28%
    13:00 +28°C° 0 mm 2 mps 759 mmHg 27%
    14:00 +28°C° 0 mm 3 mps 758 mmHg 28%
    15:00 +28°C° 0 mm 3 mps 758 mmHg 29%
    16:00 +28°C° 0 mm 4 mps 757 mmHg 30%
    17:00 +27°C° 0 mm 3 mps 758 mmHg 35%
    18:00 +25°C° 0 mm 3 mps 758 mmHg 40%
    19:00 +24°C° 0 mm 3 mps 759 mmHg 45%
    20:00 +23°C° 0 mm 2 mps 759 mmHg 49%
    21:00 +23°C° 0 mm 2 mps 759 mmHg 53%
    22:00 +21°C° 0 mm 2 mps 760 mmHg 58%
    23:00 +21°C° 0 mm 2 mps 759 mmHg 60%

    24 January, Wednesday

    Time Temperature Precipitation Wind Pressure Humidity
    00:00 +20°C° 0 mm 2 mps 759 mmHg 63%
    01:00 +20°C° 0 mm 2 mps 758 mmHg 66%
    02:00 +21°C° 0 mm 1 mps 758 mmHg 69%
    03:00 +20°C° 0 mm 1 mps 758 mmHg 72%
    04:00 +20°C° 0 mm 1 mps 757 mmHg 74%
    05:00 +20°C° 0 mm 1 mps 758 mmHg 76%
    06:00 +19°C° 0 mm 1 mps 758 mmHg 78%
    07:00 +19°C° 0 mm 1 mps 759 mmHg 80%
    08:00 +21°C° 0 mm 1 mps 759 mmHg 69%
    09:00 +23°C° 0 mm 2 mps 760 mmHg 59%
    10:00 +25°C° 0 mm 2 mps 760 mmHg 49%
    11:00 +26°C° 0 mm 2 mps 760 mmHg 45%
    12:00 +27°C° 0 mm 3 mps 759 mmHg 42%
    13:00 +28°C° 0 mm 3 mps 758 mmHg 39%
    14:00 +28°C° 0 mm 3 mps 758 mmHg 40%
    15:00 +28°C° 0 mm 3 mps 757 mmHg 41%
    16:00 +28°C° 0 mm 3 mps 757 mmHg 43%
    17:00 +27°C° 0 mm 3 mps 757 mmHg 48%
    18:00 +26°C° 0 mm 3 mps 758 mmHg 53%
    19:00 +25°C° 0 mm 2 mps 758 mmHg 58%
    20:00 +24°C° 0 mm 2 mps 758 mmHg 62%
    21:00 +23°C° 0 mm 2 mps 759 mmHg 66%
    22:00 +23°C° 0 mm 2 mps 759 mmHg 70%
    23:00 +21°C° 0 mm 2 mps 759 mmHg 72%

    25 January, Thursday

    Time Temperature Precipitation Wind Pressure Humidity
    00:00 +22°C° 0 mm 1 mps 758 mmHg 74%
    01:00 +22°C° 0 mm 1 mps 758 mmHg 75%
    02:00 +21°C° 0 mm 1 mps 758 mmHg 76%
    03:00 +21°C° 0 mm 1 mps 758 mmHg 77%
    04:00 +20°C° 0 mm 1 mps 758 mmHg 78%
    05:00 +20°C° 0 mm 1 mps 758 mmHg 79%
    06:00 +20°C° 0 mm 1 mps 759 mmHg 79%
    07:00 +19°C° 0 mm 1 mps 759 mmHg 80%
    08:00 +21°C° 0 mm 1 mps 759 mmHg 68%
    09:00 +24°C° 0 mm 1 mps 760 mmHg 56%
    10:00 +26°C° 0 mm 2 mps 760 mmHg 44%
    11:00 +27°C° 0 mm 2 mps 759 mmHg 41%
    12:00 +28°C° 0 mm 2 mps 759 mmHg 37%
    13:00 +29°C° 0 mm 3 mps 758 mmHg 34%
    14:00 +29°C° 0 mm 3 mps 757 mmHg 35%
    15:00 +29°C° 0 mm 3 mps 757 mmHg 36%
    16:00 +29°C° 0 mm 3 mps 757 mmHg 37%
    17:00 +28°C° 0 mm 3 mps 757 mmHg 41%
    18:00 +27°C° 0 mm 3 mps 757 mmHg 45%
    19:00 +25°C° 0 mm 2 mps 758 mmHg 49%
    20:00 +25°C° 0 mm 2 mps 758 mmHg 52%
    21:00 +24°C° 0 mm 2 mps 758 mmHg 54%
    22:00 +23°C° 0 mm 1 mps 759 mmHg 57%
    23:00 +23°C° 0 mm 1 mps 758 mmHg 57%
    Show more